VE3KSR Weather Reports


Display with metric or nautical units.
time (UTC)temp
F
wind
direction
speed
MPH
gust
MPH
rain 1hr
in
rain 24hr
in
rain mn
in
humidity
%
barometer
mb
20171119153726 30 302 18.0 25.0 3.94 0.00 0.00 91 1008.7
20171119153226 29 338 22.0 34.0 3.94 0.00 0.00 90 1008.3
20171119152726 29 319 23.0 30.0 3.94 0.00 0.00 91 1007.9
20171119152226 30 311 23.0 32.0 3.94 0.00 0.00 92 1007.7
20171119151726 30 315 25.0 31.0 3.94 0.00 0.00 92 1007.6
20171119151228 30 330 20.0 27.0 3.94 0.00 0.00 92 1007.5
20171119150726 30 318 18.0 22.0 3.94 0.00 0.00 93 1007.7
20171119150230 29 308 18.0 23.0 3.94 0.00 0.00 93 1007.8
20171119145728 29 316 18.0 24.0 3.94 0.00 0.00 93 1007.8
20171119145227 29 312 20.0 26.0 3.94 0.00 0.00 93 1007.7
20171119144727 29 338 21.0 29.0 3.94 0.00 0.00 92 1007.8
20171119144227 29 321 19.0 27.0 3.94 0.00 0.00 91 1008.0
20171119143727 29 330 21.0 31.0 3.94 0.00 0.00 91 1007.9
20171119143227 29 325 20.0 25.0 3.94 0.00 0.00 92 1007.7
20171119142727 28 326 25.0 33.0 3.94 0.00 0.00 92 1007.6
20171119142226 29 312 21.0 27.0 3.94 0.00 0.00 93 1007.6
20171119141728 29 308 24.0 32.0 3.94 0.00 0.00 93 1007.0
20171119141228 29 319 24.0 33.0 3.94 0.00 0.00 92 1006.7
20171119140726 29 322 23.0 31.0 3.94 0.00 0.00 92 1006.7
20171119140227 29 330 21.0 29.0 3.94 0.00 0.00 93 1006.6
20171119135727 29 318 23.0 32.0 3.94 0.00 0.00 93 1006.8
20171119135226 29 339 22.0 29.0 3.94 0.00 0.00 93 1006.6
20171119134726 29 309 20.0 28.0 3.94 0.00 0.00 94 1006.6
20171119134227 29 316 19.0 26.0 3.94 0.00 0.00 95 1006.7
20171119133727 29 323 19.0 27.0 3.94 0.00 0.00 94 1006.8
20171119133228 29 316 19.0 25.0 3.94 0.00 0.00 94 1006.9
20171119132727 29 316 21.0 28.0 3.94 0.00 0.00 95 1006.9
20171119132230 29 318 22.0 28.0 3.94 0.00 0.00 95 1006.8
20171119131727 29 321 20.0 27.0 3.94 0.00 0.00 95 1006.7
20171119131227 29 321 22.0 30.0 3.94 0.00 0.00 95 1006.5
20171119130727 29 325 15.0 23.0 3.94 0.00 0.00 95 1006.5
20171119130227 29 328 16.0 20.0 3.94 0.00 0.00 95 1006.1
20171119125727 29 321 20.0 26.0 3.94 0.00 0.00 95 1005.8
20171119125227 29 322 18.0 24.0 3.94 0.00 0.00 95 1005.6
20171119124727 29 328 18.0 23.0 3.94 0.00 0.00 95 1005.7
20171119124227 29 323 18.0 24.0 3.94 0.00 0.00 95 1005.7
20171119123727 29 311 20.0 26.0 3.94 0.00 0.00 95 1005.8
20171119123230 29 312 18.0 26.0 3.94 0.00 0.00 95 1005.7
20171119122727 29 329 21.0 27.0 3.94 0.00 0.00 95 1005.7
20171119122227 29 339 19.0 25.0 3.94 0.00 0.00 96 1005.6
20171119121728 29 321 18.0 24.0 3.94 0.00 0.00 96 1005.6
20171119121227 29 340 19.0 27.0 3.94 0.00 0.00 96 1005.5
20171119120727 29 322 18.0 25.0 3.94 0.00 0.00 96 1005.6
20171119120227 29 321 22.0 29.0 3.94 0.00 0.00 96 1005.5
20171119115727 29 325 22.0 27.0 3.94 0.00 0.00 96 1005.4
20171119115227 29 315 19.0 27.0 3.94 0.00 0.00 96 1005.2
20171119114727 29 321 16.0 21.0 3.94 0.00 0.00 95 1005.1
20171119114227 29 335 18.0 23.0 3.94 0.00 0.00 95 1004.9
20171119113727 29 312 18.0 26.0 3.94 0.00 0.00 95 1004.6
20171119113227 29 10 20.0 25.0 3.94 0.00 0.00 95 1004.4
20171119112727 29 323 21.0 28.0 3.94 0.00 0.00 95 1004.4
20171119112227 29 333 22.0 31.0 3.94 0.00 0.00 94 1004.4
20171119111728 29 316 22.0 33.0 3.94 0.00 0.00 95 1004.3
20171119111227 29 332 22.0 29.0 3.94 0.00 0.00 96 1004.2
20171119110727 29 342 24.0 32.0 3.94 0.00 0.00 97 1004.4
20171119110227 29 325 23.0 31.0 3.94 0.00 0.00 97 1004.3
20171119105729 29 339 21.0 33.0 3.94 0.00 0.00 97 1004.3
20171119105228 29 319 18.0 24.0 3.94 0.00 0.00 97 1004.3
20171119104728 29 321 21.0 27.0 3.94 0.00 0.00 97 1003.9
20171119104227 29 335 19.0 28.0 3.94 0.00 0.00 97 1003.8
20171119103728 29 346 21.0 27.0 3.94 0.00 0.00 97 1003.3
20171119103227 29 342 19.0 26.0 3.94 0.00 0.00 97 1003.1
20171119102727 29 350 21.0 27.0 3.94 0.00 0.00 97 1002.9
20171119102227 29 323 22.0 29.0 3.94 0.00 0.00 97 1002.6
20171119101727 29 322 21.0 30.0 3.94 0.00 0.00 97 1002.3
20171119101227 29 325 22.0 28.0 3.94 0.00 0.00 98 1002.3
20171119100727 29 315 25.0 32.0 3.94 0.00 0.00 98 1002.2
20171119100228 29 330 18.0 25.0 3.94 0.00 0.00 98 1002.4
20171119095727 29 335 17.0 21.0 3.94 0.00 0.00 98 1002.4
20171119095227 29 345 20.0 30.0 3.94 0.00 0.00 97 1002.4
20171119094728 29 350 19.0 24.0 3.94 0.00 0.00 97 1002.4
20171119094228 29 343 22.0 30.0 3.94 0.00 0.00 97 1002.1
20171119093728 29 329 20.0 30.0 3.94 0.00 0.00 97 1002.2
20171119093228 29 339 22.0 31.0 3.94 0.00 0.00 96 1002.1
20171119092728 29 342 18.0 27.0 3.94 0.00 0.00 96 1002.1
20171119092228 29 323 20.0 27.0 3.94 0.00 0.00 95 1002.0
20171119091728 29 338 23.0 33.0 3.94 0.00 0.00 95 1001.8
20171119091228 29 343 25.0 34.0 3.94 0.00 0.00 95 1001.4
20171119090728 29 345 24.0 34.0 3.94 0.00 0.00 96 1001.0
20171119090228 29 347 23.0 31.0 3.94 0.00 0.00 97 1000.6
20171119085728 29 342 23.0 33.0 3.94 0.00 0.00 97 1000.5
20171119085227 29 339 22.0 32.0 3.94 0.00 0.00 97 1000.4
20171119084729 29 336 21.0 31.0 3.94 0.00 0.00 97 1000.1
20171119084228 28 346 26.0 36.0 3.94 0.00 0.00 97 1000.1
20171119083728 28 347 24.0 35.0 3.94 0.00 0.00 98 1000.0
20171119083227 29 346 25.0 32.0 3.94 0.00 0.00 98 1000.1
20171119082728 28 343 27.0 37.0 3.94 0.00 0.00 98 1000.1
20171119082228 28 345 27.0 39.0 3.94 0.00 0.00 99 1000.3
20171119081727 28 340 23.0 34.0 3.94 0.00 0.00 99 1000.0
20171119081227 28 343 26.0 37.0 3.94 0.00 0.00 99 999.9
20171119080727 28 342 26.0 35.0 3.94 0.00 0.00 100 999.7
20171119080227 28 345 25.0 38.0 3.94 0.00 0.00 100 999.4
20171119075727 28 335 27.0 38.0 3.94 0.00 0.00 100 999.1
20171119075227 29 336 25.0 34.0 3.94 0.00 0.00 100 998.7
20171119074727 28 342 24.0 39.0 3.94 0.00 0.00 100 998.3
20171119074227 29 339 24.0 37.0 3.94 0.00 0.00 100 997.8
20171119073728 29 343 26.0 35.0 3.94 0.00 0.00 100 997.4
20171119073228 29 347 26.0 39.0 3.94 0.00 0.00 100 997.3
20171119072728 29 343 23.0 32.0 3.94 0.00 0.00 100 997.3
20171119072227 29 343 27.0 35.0 3.94 0.00 0.00 100 997.5
20171119071727 29 342 28.0 35.0 3.94 0.00 0.00 100 997.1
20171119071227 29 333 26.0 36.0 3.94 0.00 0.00 100 997.1
20171119070729 29 336 23.0 34.0 3.94 0.00 0.00 100 997.4
20171119070227 29 339 24.0 34.0 3.94 0.00 0.00 100 997.5
20171119065727 29 359 22.0 31.0 3.94 0.00 0.00 100 997.4
20171119065227 30 343 22.0 29.0 3.94 0.00 0.00 100 997.2
20171119064728 29 329 26.0 37.0 3.94 0.00 0.00 100 996.7
20171119064228 28 346 25.0 38.0 3.94 0.00 0.00 100 996.5
20171119063730 29 346 23.0 31.0 3.94 0.00 0.00 100 996.2
20171119063227 29 342 25.0 36.0 3.94 0.00 0.00 100 995.9
20171119062727 29 338 26.0 40.0 3.94 0.00 0.00 100 995.8
20171119062227 29 336 24.0 36.0 3.94 0.00 0.00 100 995.2
20171119061727 29 340 24.0 36.0 3.94 0.00 0.00 100 995.3
20171119061227 29 343 24.0 34.0 3.94 0.00 0.00 100 995.1
20171119060727 29 342 25.0 35.0 3.94 0.00 0.00 100 995.0
20171119060227 29 336 22.0 31.0 3.94 0.00 0.00 99 995.1
20171119055727 30 345 25.0 35.0 3.94 0.00 0.00 99 995.1
20171119055227 29 330 22.0 33.0 3.94 0.00 0.00 98 995.3
20171119054727 29 347 22.0 31.0 3.94 0.00 0.00 98 995.3
20171119054227 29 340 22.0 32.0 3.94 0.00 0.00 98 995.2
20171119053727 29 346 23.0 30.0 3.94 0.00 0.00 98 995.3
20171119053227 29 346 24.0 33.0 3.94 0.00 0.00 99 995.3
20171119052728 29 336 24.0 35.0 3.94 0.00 0.00 98 995.5
20171119052229 29 349 23.0 31.0 3.94 0.00 0.00 99 995.1
20171119051727 29 4 23.0 36.0 3.94 0.00 0.00 99 994.8
20171119051227 29 345 27.0 36.0 3.94 0.00 0.00 100 994.5
20171119050727 29 343 24.0 34.0 3.94 0.00 0.00 98 994.2
20171119050229 29 338 24.0 35.0 3.94 0.00 0.00 97 993.9
20171119045727 30 345 24.0 36.0 3.94 0.00 0.00 97 994.0
20171119045229 30 347 22.0 29.0 3.94 0.00 0.00 99 993.9
20171119044728 31 347 23.0 33.0 3.94 0.00 0.00 98 993.9
20171119044228 31 339 24.0 35.0 3.94 0.00 0.00 99 994.0
20171119043728 31 349 21.0 28.0 3.94 0.00 0.00 99 994.2
20171119043228 31 342 23.0 35.0 3.94 0.00 0.00 98 994.2
20171119042729 32 345 24.0 36.0 3.94 0.00 0.00 98 994.0
20171119042228 32 345 25.0 33.0 3.94 0.00 0.00 97 994.2
20171119041728 32 339 25.0 33.0 3.94 0.00 0.00 97 994.3
20171119041228 32 8 23.0 29.0 3.94 0.00 0.00 96 994.2
20171119040728 32 4 23.0 31.0 3.94 0.00 0.00 97 994.0
20171119040228 32 3 24.0 35.0 3.94 0.00 0.00 97 993.8
20171119035728 32 356 21.0 26.0 3.94 0.00 0.00 98 993.7
20171119035228 33 3 21.0 29.0 3.94 0.00 0.00 98 993.4
20171119034728 33 345 21.0 29.0 3.94 0.00 0.00 98 993.3
20171119034228 33 340 19.0 27.0 3.94 0.00 0.00 98 993.2
20171119033729 33 7 18.0 24.0 3.94 0.00 0.00 96 992.9
20171119033228 34 7 20.0 26.0 3.94 0.00 0.00 97 993.0
20171119032729 34 25 21.0 29.0 3.94 0.00 0.00 98 992.9
20171119032229 34 7 22.0 34.0 3.94 0.00 0.00 98 993.0
20171119031728 34 357 22.0 27.0 3.94 0.00 0.00 98 993.3
20171119031228 35 349 19.0 25.0 3.94 0.00 0.00 99 993.6
20171119030729 34 3 20.0 27.0 3.94 0.00 0.00 99 993.4
20171119030228 34 4 19.0 25.0 3.94 0.00 0.00 99 993.5
20171119025728 35 0 19.0 27.0 3.94 0.00 0.00 99 993.4
20171119024228 35 8 21.0 30.0 3.94 0.00 0.00 99 992.6
20171119013228 36 42 14.0 18.0 3.94 0.00 0.00 97 993.6
20171119010728 37 44 13.0 16.0 3.94 0.00 0.00 97 993.2
20171119005728 37 59 13.0 18.0 3.94 0.00 0.00 98 993.3
20171119005229 37 49 14.0 17.0 3.94 0.00 0.00 98 993.5
20171118235228 38 72 12.0 14.0 3.94 0.00 0.00 97 994.1
20171118232229 39 45 9.0 11.0 3.94 0.00 0.00 95 995.1
20171118225728 39 100 6.0 7.0 3.94 0.00 0.00 92 995.1
20171118225228 39 101 6.0 7.0 3.94 0.00 0.00 91 995.2
20171118224728 39 103 6.0 7.0 3.94 0.00 0.00 91 994.9
20171118224228 39 103 6.0 7.0 3.94 0.00 0.00 91 994.8
20171118222728 39 121 6.0 7.0 3.94 0.00 0.00 93 994.6
20171118222228 39 129 5.0 6.0 3.94 0.00 0.00 93 995.0
20171118215228 39 135 7.0 7.0 3.94 0.00 0.00 91 996.3
20171118214228 39 134 7.0 8.0 3.94 0.00 0.00 92 996.2
20171118213228 39 146 8.0 9.0 3.94 0.00 0.00 93 995.9
20171118212728 39 143 8.0 10.0 3.94 0.00 0.00 93 995.8
20171118212228 39 142 8.0 9.0 3.94 0.00 0.00 92 995.9
20171118211729 39 138 8.0 9.0 3.94 0.00 0.00 92 995.8
20171118211229 39 136 7.0 8.0 3.94 0.00 0.00 91 996.0
20171118210729 39 136 7.0 8.0 3.94 0.00 0.00 91 996.2
20171118210229 39 134 7.0 7.0 3.94 0.00 0.00 91 996.4
20171118205729 39 131 7.0 8.0 3.94 0.00 0.00 89 996.6
20171118205229 39 139 7.0 8.0 3.94 0.00 0.00 91 996.8
20171118204729 39 136 7.0 8.0 3.94 0.00 0.00 90 997.0
20171118204229 39 139 6.0 7.0 3.94 0.00 0.00 89 997.2
20171118203729 39 150 6.0 7.0 3.94 0.00 0.00 90 997.3
20171118203229 39 148 5.0 7.0 3.94 0.00 0.00 91 997.3
20171118202730 39 135 7.0 8.0 3.94 0.00 0.00 90 997.2
20171118202230 39 149 8.0 9.0 3.94 0.00 0.00 90 997.0
20171118201734 39 134 7.0 8.0 3.94 0.00 0.00 91 996.8
20171118195230 39 132 6.0 8.0 3.94 0.00 0.00 98 997.1
20171118192231 38 0 0.0 0.0 3.94 0.00 0.00 97 997.5
20171118185230 38 0 0.0 0.0 3.94 0.00 0.00 97 997.8
20171118175230 38 269 5.0 7.0 3.94 0.00 0.00 97 1000.0
20171118165229 38 243 7.0 9.0 3.94 0.00 0.00 99 1001.2
20171118164729 38 243 2.0 8.0 3.94 0.00 0.00 99 1001.3
20171118163229 38 259 8.0 11.0 3.94 0.00 0.00 98 1000.9
20171118162730 38 256 8.0 11.0 3.94 0.00 0.00 98 1000.9
20171118162229 38 264 7.0 10.0 3.94 0.00 0.00 98 1001.0
20171118161729 38 249 8.0 11.0 3.94 0.00 0.00 98 1001.2
20171118161229 38 291 4.0 6.0 3.94 0.00 0.00 98 1001.5
20171118160729 38 256 8.0 10.0 3.94 0.00 0.00 98 1001.7
20171118160229 38 263 10.0 14.0 3.94 0.00 0.00 97 1002.0
20171118155729 38 242 10.0 13.0 3.94 0.00 0.00 97 1002.4
20171118155229 38 252 10.0 13.0 3.94 0.00 0.00 97 1002.4
20171118154731 38 267 8.0 11.0 3.94 0.00 0.00 97 1002.6
20171118154229 38 300 10.0 13.0 3.94 0.00 0.00 97 1002.4